Location: Grange Rosano
(44.4500°N, 6.9667°E)
Time: 21:21:06
(UTC+00:00)

Helios 1A - Pass Details

Date: 26 May 2022
Orbit: 582 x 600 km, 98.2° (Epoch: 29 June)

Event Time Altitude Azimuth Distance (km) Brightness Sun altitude
Exits shadow 01:17:36 11° 134° (SE) 1,840 5.3 -19.9°
Maximum altitude 01:21:12 36° 69° (ENE) 955 4.4 -19.6°
Drops below altitude 10° 01:25:04 10° 3° (N) 1,949 6.6 -19.3°
Sets 01:27:22 0° 355° (N) 2,858 7.4 -19.1°
